Location: Liscomb Game Sanctuary
(45.1633°N, 62.5575°W)
Time: 21:28:35
(UTC-03:00)

Resurs 1-3 - Pass Details

Date: 22 February 2018
Orbit: 630 x 632 km, 98.0° (Epoch: 17 June)

Event Time Altitude Azimuth Distance (km) Brightness Sun altitude
Exits shadow 19:14:49 29° 98° (E) 1,172 4.4 -16.0°
Maximum altitude 19:15:55 33° 68° (ENE) 1,066 4.3 -16.2°
Drops below altitude 10° 19:19:52 10° 5° (N) 2,021 6.2 -16.9°
Sets 19:22:13 0° 356° (N) 2,933 7.1 -17.3°
